Time,TemperatureF,DewpointF,PressureIn,WindDirection,WindDirectionDegrees,WindSpeedMPH,WindSpeedGustMPH,Humidity,HourlyPrecipIn,Conditions,Clouds,dailyrainin,SoftwareType,DateUTC
2013-09-16 00:03:00,61.5,48.8,29.75,ENE,62,0.0,0.0,63,0.00,,CLR,0.00,VWS V14.01,2013-09-16 06:03:00,
2013-09-16 00:08:00,61.0,48.8,29.75,ENE,62,0.0,0.0,64,0.00,,CLR,0.00,VWS V14.01,2013-09-16 06:08:00,
2013-09-16 00:13:00,60.7,48.5,29.75,ENE,62,0.0,0.0,64,0.00,,CLR,0.00,VWS V14.01,2013-09-16 06:13:00,
2013-09-16 00:18:00,60.4,48.6,29.72,ENE,62,0.0,0.0,65,0.00,,CLR,0.00,VWS V14.01,2013-09-16 06:18:00,
2013-09-16 00:24:00,60.1,48.3,29.72,ENE,62,0.0,0.0,65,0.00,,CLR,0.00,VWS V14.01,2013-09-16 06:24:00,
2013-09-16 00:29:00,59.9,48.5,29.72,ENE,62,0.0,0.0,66,0.00,,CLR,0.00,VWS V14.01,2013-09-16 06:29:00,
2013-09-16 00:34:00,59.8,48.4,29.73,ENE,62,0.0,0.0,66,0.00,,CLR,0.00,VWS V14.01,2013-09-16 06:34:00,
2013-09-16 00:39:00,59.8,48.8,29.73,ENE,62,0.0,0.0,67,0.00,,CLR,0.00,VWS V14.01,2013-09-16 06:39:00,
2013-09-16 00:44:00,59.6,48.6,29.73,ENE,62,0.0,0.0,67,0.00,,CLR,0.00,VWS V14.01,2013-09-16 06:44:00,
2013-09-16 00:49:00,59.5,48.5,29.73,ENE,62,0.0,0.0,67,0.00,,CLR,0.00,VWS V14.01,2013-09-16 06:49:00,
2013-09-16 00:54:00,59.5,48.9,29.73,ENE,62,0.0,0.0,68,0.00,,CLR,0.00,VWS V14.01,2013-09-16 06:54:00,
2013-09-16 00:59:00,59.5,48.9,29.73,ENE,62,0.0,0.0,68,0.00,,CLR,0.00,VWS V14.01,2013-09-16 06:59:00,
2013-09-16 01:04:00,59.5,48.9,29.72,ENE,62,0.0,0.0,68,0.00,,CLR,0.00,VWS V14.01,2013-09-16 07:04:00,
2013-09-16 01:09:00,59.6,48.6,29.72,ENE,62,0.0,0.0,67,0.00,,CLR,0.00,VWS V14.01,2013-09-16 07:09:00,
2013-09-16 01:14:00,59.6,49.0,29.72,ENE,62,0.0,0.0,68,0.00,,CLR,0.00,VWS V14.01,2013-09-16 07:14:00,
2013-09-16 01:19:00,59.3,48.8,29.70,ENE,62,0.0,0.0,68,0.00,,CLR,0.00,VWS V14.01,2013-09-16 07:19:00,
2013-09-16 01:25:00,59.2,48.7,29.70,ENE,62,0.0,0.0,68,0.00,,CLR,0.00,VWS V14.01,2013-09-16 07:25:00,
2013-09-16 01:30:00,59.2,48.7,29.70,ENE,62,0.0,0.0,68,0.00,,CLR,0.00,VWS V14.01,2013-09-16 07:30:00,
2013-09-16 01:35:00,59.0,48.5,29.71,ENE,62,0.0,0.0,68,0.00,,CLR,0.00,VWS V14.01,2013-09-16 07:35:00,
2013-09-16 01:40:00,59.0,48.5,29.71,ENE,62,0.0,0.0,68,0.00,,CLR,0.00,VWS V14.01,2013-09-16 07:40:00,
2013-09-16 01:45:00,58.9,48.4,29.71,ENE,62,0.0,0.0,68,0.00,,CLR,0.00,VWS V14.01,2013-09-16 07:45:00,
2013-09-16 01:50:00,58.9,48.4,29.70,ENE,62,0.0,0.0,68,0.00,,CLR,0.00,VWS V14.01,2013-09-16 07:50:00,
2013-09-16 01:55:00,58.9,48.8,29.70,ENE,62,0.0,0.0,69,0.00,,CLR,0.00,VWS V14.01,2013-09-16 07:55:00,
2013-09-16 02:00:00,58.9,48.8,29.70,ENE,62,0.0,0.0,69,0.00,,CLR,0.00,VWS V14.01,2013-09-16 08:00:00,
2013-09-16 02:05:00,58.9,48.8,29.69,ENE,62,0.0,0.0,69,0.00,,CLR,0.00,VWS V14.01,2013-09-16 08:05:00,
2013-09-16 02:10:00,58.9,48.8,29.69,ENE,62,0.0,0.0,69,0.00,,CLR,0.00,VWS V14.01,2013-09-16 08:10:00,
2013-09-16 02:15:00,58.9,48.8,29.69,ENE,62,0.0,0.0,69,0.00,,CLR,0.00,VWS V14.01,2013-09-16 08:15:00,
2013-09-16 02:20:00,58.9,48.8,29.69,ENE,62,0.0,0.0,69,0.00,,CLR,0.00,VWS V14.01,2013-09-16 08:20:00,
2013-09-16 02:25:00,58.7,48.6,29.69,ENE,62,0.0,0.0,69,0.00,,CLR,0.00,VWS V14.01,2013-09-16 08:25:00,
2013-09-16 02:30:00,58.7,49.0,29.69,ENE,62,0.0,0.0,70,0.00,,CLR,0.00,VWS V14.01,2013-09-16 08:30:00,
2013-09-16 02:35:00,58.7,48.6,29.69,ENE,62,0.0,0.0,69,0.00,,CLR,0.00,VWS V14.01,2013-09-16 08:35:00,
2013-09-16 02:40:00,58.7,48.2,29.69,ENE,62,0.0,0.0,68,0.00,,CLR,0.00,VWS V14.01,2013-09-16 08:40:00,
2013-09-16 02:45:00,58.7,48.2,29.69,ENE,62,0.0,0.0,68,0.00,,CLR,0.00,VWS V14.01,2013-09-16 08:45:00,
2013-09-16 02:50:00,58.9,48.4,29.69,ENE,62,0.0,0.0,68,0.00,,CLR,0.00,VWS V14.01,2013-09-16 08:50:00,
2013-09-16 02:55:00,58.9,48.4,29.69,ENE,62,0.0,0.0,68,0.00,,CLR,0.00,VWS V14.01,2013-09-16 08:55:00,
2013-09-16 03:00:00,59.0,48.5,29.69,ENE,62,0.0,0.0,68,0.00,,CLR,0.00,VWS V14.01,2013-09-16 09:00:00,
2013-09-16 03:06:00,59.0,48.5,29.70,ENE,62,0.0,0.0,68,0.00,,CLR,0.00,VWS V14.01,2013-09-16 09:06:00,
2013-09-16 03:11:00,59.2,48.7,29.70,ENE,62,0.0,0.0,68,0.00,,CLR,0.00,VWS V14.01,2013-09-16 09:11:00,
2013-09-16 03:16:00,59.0,48.5,29.70,ENE,62,0.0,0.0,68,0.00,,CLR,0.00,VWS V14.01,2013-09-16 09:16:00,
2013-09-16 03:22:00,59.0,48.5,29.70,ENE,62,0.0,0.0,68,0.00,,CLR,0.00,VWS V14.01,2013-09-16 09:22:00,
2013-09-16 03:27:00,58.9,48.4,29.70,ENE,62,0.0,0.0,68,0.00,,CLR,0.00,VWS V14.01,2013-09-16 09:27:00,
2013-09-16 03:32:00,58.9,48.4,29.70,ENE,62,0.0,0.0,68,0.00,,CLR,0.00,VWS V14.01,2013-09-16 09:32:00,
2013-09-16 03:37:00,58.7,48.2,29.70,ENE,62,0.0,0.0,68,0.00,,CLR,0.00,VWS V14.01,2013-09-16 09:37:00,
2013-09-16 03:42:00,58.7,48.2,29.70,ENE,62,0.0,0.0,68,0.00,,CLR,0.00,VWS V14.01,2013-09-16 09:42:00,
2013-09-16 03:47:00,58.6,48.1,29.70,ENE,62,0.0,0.0,68,0.00,,CLR,0.00,VWS V14.01,2013-09-16 09:47:00,
2013-09-16 03:52:00,58.4,47.9,29.70,ENE,62,0.0,0.0,68,0.00,,CLR,0.00,VWS V14.01,2013-09-16 09:52:00,
2013-09-16 03:57:00,58.4,47.9,29.70,ENE,62,0.0,0.0,68,0.00,,CLR,0.00,VWS V14.01,2013-09-16 09:57:00,
2013-09-16 04:02:00,58.4,48.3,29.70,ENE,62,0.0,0.0,69,0.00,,CLR,0.00,VWS V14.01,2013-09-16 10:02:00,
2013-09-16 04:07:00,58.3,47.8,29.70,ENE,62,0.0,0.0,68,0.00,,CLR,0.00,VWS V14.01,2013-09-16 10:07:00,
2013-09-16 04:12:00,57.8,47.7,29.70,ENE,62,0.0,0.0,69,0.00,,CLR,0.00,VWS V14.01,2013-09-16 10:12:00,
2013-09-16 04:17:00,57.6,47.5,29.70,ENE,62,0.0,0.0,69,0.00,,CLR,0.00,VWS V14.01,2013-09-16 10:17:00,
2013-09-16 04:22:00,57.8,48.1,29.70,ENE,62,0.0,0.0,70,0.00,,CLR,0.00,VWS V14.01,2013-09-16 10:22:00,
2013-09-16 04:27:00,57.8,47.7,29.70,ENE,62,0.0,0.0,69,0.00,,CLR,0.00,VWS V14.01,2013-09-16 10:27:00,
2013-09-16 04:32:00,58.0,47.9,29.70,ENE,62,0.0,0.0,69,0.00,,CLR,0.00,VWS V14.01,2013-09-16 10:32:00,
2013-09-16 04:37:00,58.0,47.9,29.70,ENE,62,0.0,0.0,69,0.00,,CLR,0.00,VWS V14.01,2013-09-16 10:37:00,
2013-09-16 04:42:00,58.1,47.6,29.70,ENE,62,0.0,0.0,68,0.00,,CLR,0.00,VWS V14.01,2013-09-16 10:42:00,
2013-09-16 04:47:00,58.0,47.9,29.70,ENE,62,0.0,0.0,69,0.00,,CLR,0.00,VWS V14.01,2013-09-16 10:47:00,
2013-09-16 04:52:00,58.0,47.9,29.70,ENE,62,0.0,0.0,69,0.00,,CLR,0.00,VWS V14.01,2013-09-16 10:52:00,
2013-09-16 04:57:00,57.8,47.7,29.70,ENE,62,0.0,0.0,69,0.00,,CLR,0.00,VWS V14.01,2013-09-16 10:57:00,
2013-09-16 05:02:00,58.0,47.9,29.70,ENE,62,0.0,0.0,69,0.00,,CLR,0.00,VWS V14.01,2013-09-16 11:02:00,
2013-09-16 05:07:00,58.0,47.9,29.70,ENE,62,0.0,0.0,69,0.00,,CLR,0.00,VWS V14.01,2013-09-16 11:07:00,
2013-09-16 05:12:00,58.0,47.9,29.70,ENE,62,0.0,0.0,69,0.00,,CLR,0.00,VWS V14.01,2013-09-16 11:12:00,
2013-09-16 05:17:00,58.1,47.6,29.71,ENE,62,0.0,0.0,68,0.00,,CLR,0.00,VWS V14.01,2013-09-16 11:17:00,
2013-09-16 05:23:00,58.0,47.9,29.71,ENE,62,0.0,0.0,69,0.00,,CLR,0.00,VWS V14.01,2013-09-16 11:23:00,
2013-09-16 05:28:00,57.8,47.7,29.71,ENE,62,0.0,0.0,69,0.00,,CLR,0.00,VWS V14.01,2013-09-16 11:28:00,
2013-09-16 05:33:00,57.6,47.9,29.73,ENE,62,0.0,0.0,70,0.00,,CLR,0.00,VWS V14.01,2013-09-16 11:33:00,
2013-09-16 05:38:00,57.3,47.6,29.73,ENE,62,0.0,0.0,70,0.00,,CLR,0.00,VWS V14.01,2013-09-16 11:38:00,
2013-09-16 05:43:00,57.0,47.7,29.73,ENE,62,0.0,0.0,71,0.00,,CLR,0.00,VWS V14.01,2013-09-16 11:43:00,
2013-09-16 05:48:00,56.9,47.6,29.73,ENE,62,0.0,0.0,71,0.00,,CLR,0.00,VWS V14.01,2013-09-16 11:48:00,
2013-09-16 05:53:00,56.6,47.7,29.73,ENE,62,0.0,0.0,72,0.00,,CLR,0.00,VWS V14.01,2013-09-16 11:53:00,
2013-09-16 05:58:00,56.3,47.4,29.73,ENE,62,0.0,0.0,72,0.00,,CLR,0.00,VWS V14.01,2013-09-16 11:58:00,
2013-09-16 06:03:00,56.2,47.3,29.74,ENE,62,0.0,0.0,72,0.00,,CLR,0.00,VWS V14.01,2013-09-16 12:03:00,
2013-09-16 06:08:00,56.0,47.1,29.74,ENE,62,0.0,0.0,72,0.00,,CLR,0.00,VWS V14.01,2013-09-16 12:08:00,
2013-09-16 06:13:00,55.7,47.2,29.74,ENE,62,0.0,0.0,73,0.00,,CLR,0.00,VWS V14.01,2013-09-16 12:13:00,
2013-09-16 06:18:00,55.7,47.2,29.75,ENE,62,0.0,0.0,73,0.00,,CLR,0.00,VWS V14.01,2013-09-16 12:18:00,
2013-09-16 06:23:00,55.7,47.2,29.75,ENE,62,0.0,0.0,73,0.00,,CLR,0.00,VWS V14.01,2013-09-16 12:23:00,
2013-09-16 06:28:00,55.7,47.2,29.75,ENE,62,0.0,0.0,73,0.00,,CLR,0.00,VWS V14.01,2013-09-16 12:28:00,
2013-09-16 06:33:00,55.7,47.5,29.74,ENE,62,0.0,0.0,74,0.00,,CLR,0.00,VWS V14.01,2013-09-16 12:33:00,
2013-09-16 06:38:00,55.9,47.4,29.74,ENE,62,0.0,0.0,73,0.00,,CLR,0.00,VWS V14.01,2013-09-16 12:38:00,
2013-09-16 06:43:00,55.9,47.0,29.74,ENE,62,0.0,0.0,72,0.00,,CLR,0.00,VWS V14.01,2013-09-16 12:43:00,
2013-09-16 06:48:00,55.7,47.2,29.74,ENE,62,0.0,0.0,73,0.00,,CLR,0.00,VWS V14.01,2013-09-16 12:48:00,
2013-09-16 06:53:00,55.7,47.5,29.74,ENE,62,0.0,0.0,74,0.00,,CLR,0.00,VWS V14.01,2013-09-16 12:53:00,
2013-09-16 06:58:00,55.6,47.5,29.74,ENE,62,0.0,0.0,74,0.00,,CLR,0.00,VWS V14.01,2013-09-16 12:58:00,
2013-09-16 07:03:00,55.7,47.5,29.74,ENE,62,0.0,0.0,74,0.00,,CLR,0.00,VWS V14.01,2013-09-16 13:03:00,
2013-09-16 07:08:00,55.9,47.7,29.74,ENE,62,0.0,0.0,74,0.00,,CLR,0.00,VWS V14.01,2013-09-16 13:08:00,
2013-09-16 07:14:00,56.0,47.8,29.74,ENE,62,0.0,0.0,74,0.00,,CLR,0.00,VWS V14.01,2013-09-16 13:14:00,
2013-09-16 07:19:00,56.0,47.5,29.75,ENE,62,0.0,0.0,73,0.00,,CLR,0.00,VWS V14.01,2013-09-16 13:19:00,
2013-09-16 07:24:00,56.0,47.8,29.75,ENE,62,0.0,0.0,74,0.00,,CLR,0.00,VWS V14.01,2013-09-16 13:24:00,
2013-09-16 07:29:00,56.0,47.5,29.75,ENE,62,0.0,0.0,73,0.00,,CLR,0.00,VWS V14.01,2013-09-16 13:29:00,
2013-09-16 07:34:00,55.9,47.7,29.75,ENE,62,0.0,0.0,74,0.00,,CLR,0.00,VWS V14.01,2013-09-16 13:34:00,
2013-09-16 07:39:00,55.9,47.7,29.75,ENE,62,0.0,0.0,74,0.00,,CLR,0.00,VWS V14.01,2013-09-16 13:39:00,
2013-09-16 07:44:00,55.9,47.7,29.75,ENE,62,0.0,0.0,74,0.00,,CLR,0.00,VWS V14.01,2013-09-16 13:44:00,
2013-09-16 07:49:00,55.9,48.1,29.75,ENE,62,0.0,0.0,75,0.00,,CLR,0.00,VWS V14.01,2013-09-16 13:49:00,
2013-09-16 07:54:00,55.7,47.9,29.75,ENE,62,0.0,0.0,75,0.00,,CLR,0.00,VWS V14.01,2013-09-16 13:54:00,
2013-09-16 07:59:00,55.7,47.9,29.75,ENE,62,0.0,0.0,75,0.00,,CLR,0.00,VWS V14.01,2013-09-16 13:59:00,
2013-09-16 08:04:00,55.9,48.1,29.75,ENE,62,0.0,0.0,75,0.00,,CLR,0.00,VWS V14.01,2013-09-16 14:04:00,
2013-09-16 08:09:00,56.3,48.1,29.75,NE,42,0.0,1.0,74,0.00,,CLR,0.00,VWS V14.01,2013-09-16 14:09:00,
2013-09-16 08:14:00,56.6,48.4,29.75,NE,42,0.0,0.0,74,0.00,,CLR,0.00,VWS V14.01,2013-09-16 14:14:00,
2013-09-16 08:19:00,57.0,48.4,29.77,NE,41,0.0,1.0,73,0.00,,CLR,0.00,VWS V14.01,2013-09-16 14:19:00,
2013-09-16 08:24:00,57.5,48.6,29.77,NNW,336,0.0,0.0,72,0.00,,CLR,0.00,VWS V14.01,2013-09-16 14:24:00,
2013-09-16 08:29:00,58.0,48.7,29.77,NNW,337,0.0,0.0,71,0.00,,CLR,0.00,VWS V14.01,2013-09-16 14:29:00,
2013-09-16 08:34:00,58.6,48.9,29.76,NE,37,0.0,1.0,70,0.00,,CLR,0.00,VWS V14.01,2013-09-16 14:34:00,
2013-09-16 08:39:00,59.0,48.5,29.76,WNW,294,1.0,4.0,68,0.00,,CLR,0.00,VWS V14.01,2013-09-16 14:39:00,
2013-09-16 08:44:00,59.5,48.2,29.76,NE,44,0.0,2.0,66,0.00,,CLR,0.00,VWS V14.01,2013-09-16 14:44:00,
2013-09-16 08:49:00,59.9,47.7,29.75,North,360,1.0,4.0,64,0.00,,CLR,0.00,VWS V14.01,2013-09-16 14:49:00,
2013-09-16 08:54:00,60.5,48.7,29.75,NNW,345,0.0,1.0,65,0.00,,CLR,0.00,VWS V14.01,2013-09-16 14:54:00,
2013-09-16 08:59:00,61.0,48.8,29.75,North,355,0.0,0.0,64,0.00,,CLR,0.00,VWS V14.01,2013-09-16 14:59:00,
2013-09-16 09:04:00,61.3,47.8,29.74,ESE,105,1.0,3.0,61,0.00,,CLR,0.00,VWS V14.01,2013-09-16 15:04:00,
2013-09-16 09:10:00,61.8,47.8,29.74,East,96,0.0,0.0,60,0.00,,CLR,0.00,VWS V14.01,2013-09-16 15:10:00,
2013-09-16 09:15:00,62.3,49.1,29.74,East,96,0.0,0.0,62,0.00,,CLR,0.00,VWS V14.01,2013-09-16 15:15:00,
2013-09-16 09:20:00,62.6,49.0,29.74,East,96,0.0,0.0,61,0.00,,CLR,0.00,VWS V14.01,2013-09-16 15:20:00,
2013-09-16 09:25:00,62.7,49.9,29.74,East,96,0.0,0.0,63,0.00,,CLR,0.00,VWS V14.01,2013-09-16 15:25:00,
2013-09-16 09:30:00,62.9,49.3,29.74,East,99,0.0,1.0,61,0.00,,CLR,0.00,VWS V14.01,2013-09-16 15:30:00,
2013-09-16 09:35:00,62.9,49.3,29.72,ENE,71,0.0,1.0,61,0.00,,CLR,0.00,VWS V14.01,2013-09-16 15:35:00,
2013-09-16 09:40:00,63.4,49.3,29.72,ENE,70,0.0,1.0,60,0.00,,CLR,0.00,VWS V14.01,2013-09-16 15:40:00,
2013-09-16 09:45:00,63.5,49.4,29.72,ENE,71,0.0,0.0,60,0.00,,CLR,0.00,VWS V14.01,2013-09-16 15:45:00,
2013-09-16 09:50:00,63.7,49.1,29.72,ENE,71,0.0,0.0,59,0.00,,CLR,0.00,VWS V14.01,2013-09-16 15:50:00,
2013-09-16 09:55:00,63.7,49.1,29.72,ENE,71,0.0,0.0,59,0.00,,CLR,0.00,VWS V14.01,2013-09-16 15:55:00,
2013-09-16 10:00:00,63.9,49.8,29.72,ENE,71,0.0,0.0,60,0.00,,CLR,0.00,VWS V14.01,2013-09-16 16:00:00,
2013-09-16 10:05:00,63.9,49.3,29.72,ENE,71,0.0,0.0,59,0.00,,CLR,0.00,VWS V14.01,2013-09-16 16:05:00,
2013-09-16 10:11:00,64.0,49.4,29.72,SW,234,1.0,2.0,59,0.00,,CLR,0.00,VWS V14.01,2013-09-16 16:11:00,
2013-09-16 10:16:00,64.3,48.8,29.72,SW,235,0.0,1.0,57,0.00,,CLR,0.00,VWS V14.01,2013-09-16 16:16:00,
2013-09-16 10:21:00,64.7,48.7,29.72,SW,235,0.0,0.0,56,0.00,,CLR,0.00,VWS V14.01,2013-09-16 16:21:00,
2013-09-16 10:26:00,65.2,49.1,29.72,SW,235,0.0,0.0,56,0.00,,CLR,0.00,VWS V14.01,2013-09-16 16:26:00,
2013-09-16 10:31:00,65.5,49.4,29.71,WNW,286,0.0,1.0,56,0.00,,CLR,0.00,VWS V14.01,2013-09-16 16:31:00,
2013-09-16 10:36:00,66.0,48.4,29.71,ENE,77,0.0,4.0,53,0.00,,CLR,0.00,VWS V14.01,2013-09-16 16:36:00,
2013-09-16 10:41:00,66.4,48.8,29.71,East,94,0.0,3.0,53,0.00,,CLR,0.00,VWS V14.01,2013-09-16 16:41:00,
2013-09-16 10:46:00,67.1,49.4,29.71,East,83,0.0,1.0,53,0.00,,CLR,0.00,VWS V14.01,2013-09-16 16:46:00,
2013-09-16 10:51:00,67.6,49.4,29.71,East,94,0.0,4.0,52,0.00,,CLR,0.00,VWS V14.01,2013-09-16 16:51:00,
2013-09-16 10:56:00,68.3,50.0,29.71,NNE,19,0.0,2.0,52,0.00,,CLR,0.00,VWS V14.01,2013-09-16 16:56:00,
2013-09-16 11:01:00,68.8,48.3,29.69,NNE,16,2.0,9.0,48,0.00,,CLR,0.00,VWS V14.01,2013-09-16 17:01:00,
2013-09-16 11:06:00,69.6,48.5,29.69,NE,53,1.0,6.0,47,0.00,,CLR,0.00,VWS V14.01,2013-09-16 17:06:00,
2013-09-16 11:11:00,70.4,48.7,29.69,NW,324,0.0,2.0,46,0.00,,CLR,0.00,VWS V14.01,2013-09-16 17:11:00,
2013-09-16 11:16:00,71.5,48.5,29.67,ENE,57,0.0,5.0,44,0.00,,CLR,0.00,VWS V14.01,2013-09-16 17:16:00,
2013-09-16 11:21:00,72.3,48.6,29.67,NW,313,0.0,2.0,43,0.00,,CLR,0.00,VWS V14.01,2013-09-16 17:21:00,
2013-09-16 11:26:00,72.8,47.8,29.67,NNE,26,0.0,5.0,41,0.00,,CLR,0.00,VWS V14.01,2013-09-16 17:26:00,
2013-09-16 11:31:00,73.5,47.0,29.67,NNE,31,4.0,6.0,39,0.00,,CLR,0.00,VWS V14.01,2013-09-16 17:31:00,
2013-09-16 11:36:00,74.4,47.9,29.67,NNW,346,2.0,10.0,39,0.00,,CLR,0.00,VWS V14.01,2013-09-16 17:36:00,
2013-09-16 11:41:00,75.4,46.6,29.67,ENE,66,2.0,5.0,36,0.00,,CLR,0.00,VWS V14.01,2013-09-16 17:41:00,
2013-09-16 11:46:00,76.3,45.9,29.65,NNE,15,4.0,5.0,34,0.00,,CLR,0.00,VWS V14.01,2013-09-16 17:46:00,
2013-09-16 11:51:00,76.7,47.0,29.65,NW,304,1.0,2.0,35,0.00,,CLR,0.00,VWS V14.01,2013-09-16 17:51:00,
2013-09-16 11:56:00,77.0,47.3,29.65,NE,40,1.0,2.0,35,0.00,,CLR,0.00,VWS V14.01,2013-09-16 17:56:00,
2013-09-16 12:01:00,77.0,47.3,29.65,ESE,109,3.0,3.0,35,0.00,,CLR,0.00,VWS V14.01,2013-09-16 18:01:00,
2013-09-16 12:07:00,76.8,47.1,29.65,ENE,59,2.0,2.0,35,0.00,,CLR,0.00,VWS V14.01,2013-09-16 18:07:00,
2013-09-16 12:12:00,76.7,46.2,29.65,East,82,1.0,1.0,34,0.00,,CLR,0.00,VWS V14.01,2013-09-16 18:12:00,
2013-09-16 12:17:00,76.3,46.7,29.65,ENE,74,0.0,1.0,35,0.00,,CLR,0.00,VWS V14.01,2013-09-16 18:17:00,
2013-09-16 12:22:00,76.3,47.4,29.65,NNE,33,1.0,1.0,36,0.00,,CLR,0.00,VWS V14.01,2013-09-16 18:22:00,
2013-09-16 12:27:00,76.3,48.1,29.65,ENE,68,1.0,1.0,37,0.00,,CLR,0.00,VWS V14.01,2013-09-16 18:27:00,
2013-09-16 12:32:00,76.3,47.4,29.64,NNW,348,0.0,3.0,36,0.00,,CLR,0.00,VWS V14.01,2013-09-16 18:32:00,
2013-09-16 12:37:00,76.5,46.8,29.64,ENE,62,1.0,2.0,35,0.00,,CLR,0.00,VWS V14.01,2013-09-16 18:37:00,
2013-09-16 12:42:00,76.8,46.3,29.64,North,350,0.0,5.0,34,0.00,,CLR,0.00,VWS V14.01,2013-09-16 18:42:00,
2013-09-16 12:47:00,77.2,47.5,29.64,ENE,65,1.0,4.0,35,0.00,,CLR,0.00,VWS V14.01,2013-09-16 18:47:00,
2013-09-16 12:52:00,77.4,46.9,29.64,ENE,64,0.0,1.0,34,0.00,,CLR,0.00,VWS V14.01,2013-09-16 18:52:00,
2013-09-16 12:57:00,77.7,46.3,29.64,East,98,0.0,6.0,33,0.00,,CLR,0.00,VWS V14.01,2013-09-16 18:57:00,
2013-09-16 13:02:00,77.9,46.5,29.62,NW,319,0.0,1.0,33,0.00,,CLR,0.00,VWS V14.01,2013-09-16 19:02:00,
2013-09-16 13:07:00,78.3,46.0,29.62,NNE,24,4.0,6.0,32,0.00,,CLR,0.00,VWS V14.01,2013-09-16 19:07:00,
2013-09-16 13:12:00,79.0,43.2,29.62,NE,40,5.0,7.0,28,0.00,,CLR,0.00,VWS V14.01,2013-09-16 19:12:00,
2013-09-16 13:17:00,79.8,44.8,29.62,NE,38,0.0,4.0,29,0.00,,CLR,0.00,VWS V14.01,2013-09-16 19:17:00,
2013-09-16 13:22:00,80.1,45.0,29.62,ENE,57,2.0,3.0,29,0.00,,CLR,0.00,VWS V14.01,2013-09-16 19:22:00,
2013-09-16 13:27:00,80.3,46.9,29.62,NE,51,1.0,2.0,31,0.00,,CLR,0.00,VWS V14.01,2013-09-16 19:27:00,
2013-09-16 13:32:00,81.1,44.0,29.60,NE,42,3.0,4.0,27,0.00,,CLR,0.00,VWS V14.01,2013-09-16 19:32:00,
2013-09-16 13:37:00,81.2,45.0,29.60,NW,322,1.0,5.0,28,0.00,,CLR,0.00,VWS V14.01,2013-09-16 19:37:00,
2013-09-16 13:43:00,81.8,45.5,29.60,ENE,61,3.0,9.0,28,0.00,,CLR,0.00,VWS V14.01,2013-09-16 19:43:00,
2013-09-16 13:48:00,82.6,44.3,29.60,NE,35,1.0,2.0,26,0.00,,CLR,0.00,VWS V14.01,2013-09-16 19:48:00,
2013-09-16 13:53:00,83.6,44.1,29.60,North,355,0.0,7.0,25,0.00,,CLR,0.00,VWS V14.01,2013-09-16 19:53:00,
2013-09-16 13:58:00,84.0,44.4,29.60,NNW,328,5.0,13.0,25,0.00,,CLR,0.00,VWS V14.01,2013-09-16 19:58:00,
2013-09-16 14:03:00,84.0,44.4,29.59,NNE,27,3.0,9.0,25,0.00,,CLR,0.00,VWS V14.01,2013-09-16 20:03:00,
2013-09-16 14:08:00,84.7,44.0,29.59,NW,305,8.0,9.0,24,0.00,,CLR,0.00,VWS V14.01,2013-09-16 20:08:00,
2013-09-16 14:13:00,84.7,44.0,29.59,North,5,3.0,5.0,24,0.00,,CLR,0.00,VWS V14.01,2013-09-16 20:13:00,
2013-09-16 14:18:00,84.1,46.5,29.59,NNE,25,0.0,5.0,27,0.00,,CLR,0.00,VWS V14.01,2013-09-16 20:18:00,
2013-09-16 14:23:00,84.0,44.4,29.59,ENE,67,2.0,3.0,25,0.00,,CLR,0.00,VWS V14.01,2013-09-16 20:23:00,
2013-09-16 14:28:00,83.4,46.0,29.59,NE,44,3.0,5.0,27,0.00,,CLR,0.00,VWS V14.01,2013-09-16 20:28:00,
2013-09-16 14:33:00,82.8,45.4,29.58,East,81,0.0,12.0,27,0.00,,CLR,0.00,VWS V14.01,2013-09-16 20:33:00,
2013-09-16 14:38:00,82.2,44.9,29.58,NNE,30,0.0,7.0,27,0.00,,CLR,0.00,VWS V14.01,2013-09-16 20:38:00,
2013-09-16 14:43:00,81.8,45.5,29.58,NNE,17,4.0,5.0,28,0.00,,CLR,0.00,VWS V14.01,2013-09-16 20:43:00,
2013-09-16 14:48:00,81.8,45.5,29.58,North,355,5.0,7.0,28,0.00,,CLR,0.00,VWS V14.01,2013-09-16 20:48:00,
2013-09-16 14:53:00,81.8,44.6,29.58,ESE,104,0.0,7.0,27,0.00,,CLR,0.00,VWS V14.01,2013-09-16 20:53:00,
2013-09-16 14:58:00,81.2,45.0,29.58,ENE,59,3.0,5.0,28,0.00,,CLR,0.00,VWS V14.01,2013-09-16 20:58:00,
2013-09-16 15:03:00,80.7,44.6,29.57,North,5,6.0,6.0,28,0.00,,CLR,0.00,VWS V14.01,2013-09-16 21:03:00,
2013-09-16 15:08:00,79.9,43.0,29.57,ENE,61,4.0,12.0,27,0.00,,CLR,0.00,VWS V14.01,2013-09-16 21:08:00,
2013-09-16 15:13:00,79.6,42.7,29.57,ENE,71,4.0,8.0,27,0.00,,CLR,0.00,VWS V14.01,2013-09-16 21:13:00,
2013-09-16 15:18:00,79.0,43.2,29.58,NNE,28,1.0,18.0,28,0.00,,CLR,0.00,VWS V14.01,2013-09-16 21:18:00,
2013-09-16 15:23:00,78.3,41.6,29.58,NE,36,5.0,12.0,27,0.00,,CLR,0.00,VWS V14.01,2013-09-16 21:23:00,
2013-09-16 15:28:00,78.1,42.4,29.58,North,360,2.0,7.0,28,0.00,,CLR,0.00,VWS V14.01,2013-09-16 21:28:00,
2013-09-16 15:33:00,78.1,41.4,29.57,West,281,3.0,7.0,27,0.00,,CLR,0.00,VWS V14.01,2013-09-16 21:33:00,
2013-09-16 15:39:00,77.7,42.0,29.57,North,349,0.0,13.0,28,0.00,,CLR,0.00,VWS V14.01,2013-09-16 21:39:00,
2013-09-16 15:44:00,77.7,41.1,29.57,North,355,1.0,7.0,27,0.00,,CLR,0.00,VWS V14.01,2013-09-16 21:44:00,
2013-09-16 15:49:00,77.6,42.0,29.58,North,355,10.0,17.0,28,0.00,,CLR,0.00,VWS V14.01,2013-09-16 21:49:00,
2013-09-16 15:54:00,77.4,40.8,29.58,North,355,3.0,3.0,27,0.00,,CLR,0.00,VWS V14.01,2013-09-16 21:54:00,
2013-09-16 15:59:00,77.6,42.0,29.58,North,5,1.0,3.0,28,0.00,,CLR,0.00,VWS V14.01,2013-09-16 21:59:00,
2013-09-16 16:04:00,78.1,41.4,29.59,North,11,0.0,7.0,27,0.00,,CLR,0.00,VWS V14.01,2013-09-16 22:04:00,
2013-09-16 16:09:00,78.6,40.9,29.59,NE,48,4.0,4.0,26,0.00,,CLR,0.00,VWS V14.01,2013-09-16 22:09:00,
2013-09-16 16:14:00,78.8,41.0,29.59,NNW,337,3.0,3.0,26,0.00,,CLR,0.00,VWS V14.01,2013-09-16 22:14:00,
2013-09-16 16:19:00,78.6,41.9,29.58,NNW,345,0.0,4.0,27,0.00,,CLR,0.00,VWS V14.01,2013-09-16 22:19:00,
2013-09-16 16:24:00,78.6,39.9,29.58,NE,44,3.0,7.0,25,0.00,,CLR,0.00,VWS V14.01,2013-09-16 22:24:00,
2013-09-16 16:29:00,78.8,40.0,29.58,NNE,30,3.0,7.0,25,0.00,,CLR,0.00,VWS V14.01,2013-09-16 22:29:00,
2013-09-16 16:34:00,79.0,41.2,29.57,ESE,119,0.0,3.0,26,0.00,,CLR,0.00,VWS V14.01,2013-09-16 22:34:00,
2013-09-16 16:39:00,79.2,41.4,29.57,NE,53,0.0,2.0,26,0.00,,CLR,0.00,VWS V14.01,2013-09-16 22:39:00,
2013-09-16 16:44:00,79.2,40.4,29.57,NE,36,0.0,4.0,25,0.00,,CLR,0.00,VWS V14.01,2013-09-16 22:44:00,
2013-09-16 16:49:00,79.2,40.4,29.56,NNE,19,2.0,4.0,25,0.00,,CLR,0.00,VWS V14.01,2013-09-16 22:49:00,
2013-09-16 16:54:00,79.4,41.6,29.56,NNE,33,2.0,4.0,26,0.00,,CLR,0.00,VWS V14.01,2013-09-16 22:54:00,
2013-09-16 16:59:00,79.6,39.7,29.56,NW,326,0.0,4.0,24,0.00,,CLR,0.00,VWS V14.01,2013-09-16 22:59:00,
2013-09-16 17:04:00,79.4,40.5,29.55,NNW,340,3.0,4.0,25,0.00,,CLR,0.00,VWS V14.01,2013-09-16 23:04:00,
2013-09-16 17:09:00,79.2,39.3,29.55,NNE,33,3.0,7.0,24,0.00,,CLR,0.00,VWS V14.01,2013-09-16 23:09:00,
2013-09-16 17:14:00,78.8,39.0,29.55,NE,36,4.0,11.0,24,0.00,,CLR,0.00,VWS V14.01,2013-09-16 23:14:00,
2013-09-16 17:19:00,78.6,38.8,29.57,East,84,0.0,8.0,24,0.00,,CLR,0.00,VWS V14.01,2013-09-16 23:19:00,
2013-09-16 17:24:00,78.3,38.6,29.57,ENE,68,1.0,11.0,24,0.00,,CLR,0.00,VWS V14.01,2013-09-16 23:24:00,
2013-09-16 17:30:00,78.1,39.5,29.57,NW,304,3.0,8.0,25,0.00,,CLR,0.00,VWS V14.01,2013-09-16 23:30:00,
2013-09-16 17:35:00,77.9,42.2,29.57,NNW,347,0.0,3.0,28,0.00,,CLR,0.00,VWS V14.01,2013-09-16 23:35:00,
2013-09-16 17:40:00,77.4,41.8,29.57,North,349,0.0,1.0,28,0.00,,CLR,0.00,VWS V14.01,2013-09-16 23:40:00,
2013-09-16 17:45:00,76.8,40.3,29.57,ENE,57,1.0,7.0,27,0.00,,CLR,0.00,VWS V14.01,2013-09-16 23:45:00,
2013-09-16 17:50:00,76.7,41.2,29.57,NE,47,0.0,5.0,28,0.00,,CLR,0.00,VWS V14.01,2013-09-16 23:50:00,
2013-09-16 17:55:00,76.3,39.9,29.57,North,5,0.0,5.0,27,0.00,,CLR,0.00,VWS V14.01,2013-09-16 23:55:00,
2013-09-16 18:00:00,76.1,40.7,29.57,NNW,329,0.0,4.0,28,0.00,,CLR,0.00,VWS V14.01,2013-09-17 00:00:00,
2013-09-16 18:05:00,76.0,40.6,29.57,WNW,298,1.0,4.0,28,0.00,,CLR,0.00,VWS V14.01,2013-09-17 00:05:00,
2013-09-16 18:10:00,75.6,41.1,29.57,North,5,0.0,1.0,29,0.00,,CLR,0.00,VWS V14.01,2013-09-17 00:10:00,
2013-09-16 18:15:00,75.3,42.6,29.57,ENE,66,2.0,3.0,31,0.00,,CLR,0.00,VWS V14.01,2013-09-17 00:15:00,
2013-09-16 18:20:00,75.1,42.4,29.57,ENE,74,0.0,0.0,31,0.00,,CLR,0.00,VWS V14.01,2013-09-17 00:20:00,
2013-09-16 18:25:00,74.9,42.3,29.57,ENE,74,0.0,1.0,31,0.00,,CLR,0.00,VWS V14.01,2013-09-17 00:25:00,
2013-09-16 18:30:00,74.6,42.0,29.57,SSW,200,0.0,3.0,31,0.00,,CLR,0.00,VWS V14.01,2013-09-17 00:30:00,
2013-09-16 18:35:00,74.4,41.8,29.57,NE,36,0.0,3.0,31,0.00,,CLR,0.00,VWS V14.01,2013-09-17 00:35:00,
2013-09-16 18:40:00,74.4,41.8,29.57,NE,41,1.0,4.0,31,0.00,,CLR,0.00,VWS V14.01,2013-09-17 00:40:00,
2013-09-16 18:45:00,74.4,41.8,29.57,NNE,15,3.0,4.0,31,0.00,,CLR,0.00,VWS V14.01,2013-09-17 00:45:00,
2013-09-16 18:50:00,74.2,41.7,29.57,NE,42,1.0,5.0,31,0.00,,CLR,0.00,VWS V14.01,2013-09-17 00:50:00,
2013-09-16 18:55:00,74.2,41.7,29.57,NE,42,0.0,1.0,31,0.00,,CLR,0.00,VWS V14.01,2013-09-17 00:55:00,
2013-09-16 19:00:00,73.9,41.4,29.56,NNE,15,0.0,4.0,31,0.00,,CLR,0.00,VWS V14.01,2013-09-17 01:00:00,
2013-09-16 19:05:00,73.9,41.4,29.56,North,360,0.0,4.0,31,0.00,,CLR,0.00,VWS V14.01,2013-09-17 01:05:00,
2013-09-16 19:10:00,73.5,42.7,29.56,North,360,0.0,0.0,33,0.00,,CLR,0.00,VWS V14.01,2013-09-17 01:10:00,
2013-09-16 19:15:00,73.0,43.0,29.58,North,360,0.0,0.0,34,0.00,,CLR,0.00,VWS V14.01,2013-09-17 01:15:00,
2013-09-16 19:20:00,72.3,42.4,29.58,North,360,0.0,0.0,34,0.00,,CLR,0.00,VWS V14.01,2013-09-17 01:20:00,
2013-09-16 19:26:00,71.8,43.4,29.58,North,360,0.0,0.0,36,0.00,,CLR,0.00,VWS V14.01,2013-09-17 01:26:00,
2013-09-16 19:31:00,71.3,43.0,29.58,North,360,0.0,0.0,36,0.00,,CLR,0.00,VWS V14.01,2013-09-17 01:31:00,
2013-09-16 19:36:00,70.8,42.5,29.58,North,360,0.0,0.0,36,0.00,,CLR,0.00,VWS V14.01,2013-09-17 01:36:00,
2013-09-16 19:41:00,70.3,42.8,29.58,North,360,0.0,0.0,37,0.00,,CLR,0.00,VWS V14.01,2013-09-17 01:41:00,
2013-09-16 19:46:00,69.9,42.5,29.59,North,360,0.0,0.0,37,0.00,,CLR,0.00,VWS V14.01,2013-09-17 01:46:00,
2013-09-16 19:51:00,69.4,43.4,29.59,North,360,0.0,0.0,39,0.00,,CLR,0.00,VWS V14.01,2013-09-17 01:51:00,
2013-09-16 19:56:00,68.9,43.6,29.59,North,360,0.0,1.0,40,0.00,,CLR,0.00,VWS V14.01,2013-09-17 01:56:00,
2013-09-16 20:01:00,68.6,43.3,29.61,North,360,0.0,0.0,40,0.00,,CLR,0.00,VWS V14.01,2013-09-17 02:01:00,
2013-09-16 20:06:00,68.8,43.5,29.61,NW,320,0.0,2.0,40,0.00,,CLR,0.00,VWS V14.01,2013-09-17 02:06:00,
2013-09-16 20:11:00,68.9,43.6,29.61,NW,321,0.0,0.0,40,0.00,,CLR,0.00,VWS V14.01,2013-09-17 02:11:00,
2013-09-16 20:16:00,68.8,45.4,29.58,NW,321,0.0,0.0,43,0.00,,CLR,0.00,VWS V14.01,2013-09-17 02:16:00,
2013-09-16 20:21:00,68.3,44.3,29.58,NW,321,0.0,0.0,42,0.00,,CLR,0.00,VWS V14.01,2013-09-17 02:21:00,
2013-09-16 20:26:00,67.6,44.3,29.58,NW,321,0.0,0.0,43,0.00,,CLR,0.00,VWS V14.01,2013-09-17 02:26:00,
2013-09-16 20:31:00,66.9,44.9,29.59,NW,321,0.0,0.0,45,0.00,,CLR,0.00,VWS V14.01,2013-09-17 02:31:00,
2013-09-16 20:36:00,66.3,44.3,29.59,NW,321,0.0,0.0,45,0.00,,CLR,0.00,VWS V14.01,2013-09-17 02:36:00,
2013-09-16 20:41:00,65.8,44.5,29.59,NW,321,0.0,0.0,46,0.00,,CLR,0.00,VWS V14.01,2013-09-17 02:41:00,
2013-09-16 20:46:00,65.3,44.6,29.61,NW,321,0.0,0.0,47,0.00,,CLR,0.00,VWS V14.01,2013-09-17 02:46:00,
2013-09-16 20:51:00,64.8,44.7,29.61,NW,321,0.0,0.0,48,0.00,,CLR,0.00,VWS V14.01,2013-09-17 02:51:00,
2013-09-16 20:56:00,64.3,44.2,29.61,NW,321,0.0,0.0,48,0.00,,CLR,0.00,VWS V14.01,2013-09-17 02:56:00,
2013-09-16 21:01:00,63.9,44.4,29.63,NW,321,0.0,0.0,49,0.00,,CLR,0.00,VWS V14.01,2013-09-17 03:01:00,
2013-09-16 21:06:00,63.4,45.0,29.63,NW,321,0.0,0.0,51,0.00,,CLR,0.00,VWS V14.01,2013-09-17 03:06:00,
2013-09-16 21:11:00,63.2,44.8,29.63,NW,321,0.0,0.0,51,0.00,,CLR,0.00,VWS V14.01,2013-09-17 03:11:00,
2013-09-16 21:16:00,62.9,44.5,29.61,NW,321,0.0,0.0,51,0.00,,CLR,0.00,VWS V14.01,2013-09-17 03:16:00,
2013-09-16 21:22:00,62.6,45.2,29.61,NW,321,0.0,0.0,53,0.00,,CLR,0.00,VWS V14.01,2013-09-17 03:22:00,
2013-09-16 21:27:00,62.6,45.7,29.61,NW,321,0.0,0.0,54,0.00,,CLR,0.00,VWS V14.01,2013-09-17 03:27:00,
2013-09-16 21:32:00,62.9,45.5,29.62,NW,321,0.0,0.0,53,0.00,,CLR,0.00,VWS V14.01,2013-09-17 03:32:00,
2013-09-16 21:37:00,63.1,45.7,29.62,NW,321,0.0,0.0,53,0.00,,CLR,0.00,VWS V14.01,2013-09-17 03:37:00,
2013-09-16 21:42:00,63.1,46.7,29.62,NW,321,0.0,0.0,55,0.00,,CLR,0.00,VWS V14.01,2013-09-17 03:42:00,
2013-09-16 21:47:00,63.1,45.7,29.63,NW,321,0.0,0.0,53,0.00,,CLR,0.00,VWS V14.01,2013-09-17 03:47:00,
2013-09-16 21:52:00,63.7,45.8,29.63,NW,321,0.0,0.0,52,0.00,,CLR,0.00,VWS V14.01,2013-09-17 03:52:00,
2013-09-16 21:57:00,64.2,46.7,29.63,NW,321,0.0,0.0,53,0.00,,CLR,0.00,VWS V14.01,2013-09-17 03:57:00,
2013-09-16 22:01:00,64.2,46.2,29.62,NW,321,0.0,0.0,52,0.00,,CLR,0.00,VWS V14.01,2013-09-17 04:01:00,
2013-09-16 22:02:00,64.2,46.2,29.62,NW,321,0.0,0.0,52,0.00,,CLR,0.00,VWS V14.01,2013-09-17 04:02:00,
2013-09-16 22:06:00,63.9,46.5,29.62,NW,321,0.0,0.0,53,0.00,,CLR,0.00,VWS V14.01,2013-09-17 04:06:00,
2013-09-16 22:11:00,63.1,46.2,29.62,NW,321,0.0,0.0,54,0.00,,CLR,0.00,VWS V14.01,2013-09-17 04:11:00,
2013-09-16 22:16:00,62.3,46.0,29.62,NW,321,0.0,0.0,55,0.00,,CLR,0.00,VWS V14.01,2013-09-17 04:16:00,
2013-09-16 22:22:00,61.8,46.0,29.62,NW,321,0.0,0.0,56,0.00,,CLR,0.00,VWS V14.01,2013-09-17 04:22:00,
2013-09-16 22:27:00,61.5,46.1,29.62,NW,321,0.0,0.0,57,0.00,,CLR,0.00,VWS V14.01,2013-09-17 04:27:00,
2013-09-16 22:32:00,61.2,45.9,29.63,NW,321,0.0,0.0,57,0.00,,CLR,0.00,VWS V14.01,2013-09-17 04:32:00,
2013-09-16 22:37:00,60.9,45.6,29.63,NW,321,0.0,0.0,57,0.00,,CLR,0.00,VWS V14.01,2013-09-17 04:37:00,
2013-09-16 22:42:00,60.5,45.2,29.63,NW,321,0.0,0.0,57,0.00,,CLR,0.00,VWS V14.01,2013-09-17 04:42:00,
2013-09-16 22:47:00,60.2,44.9,29.65,NW,321,0.0,0.0,57,0.00,,CLR,0.00,VWS V14.01,2013-09-17 04:47:00,
2013-09-16 22:52:00,60.1,44.4,29.65,NW,321,0.0,0.0,56,0.00,,CLR,0.00,VWS V14.01,2013-09-17 04:52:00,
2013-09-16 22:57:00,59.8,44.1,29.65,NW,321,0.0,0.0,56,0.00,,CLR,0.00,VWS V14.01,2013-09-17 04:57:00,
2013-09-16 23:02:00,59.6,43.9,29.66,NW,321,0.0,0.0,56,0.00,,CLR,0.00,VWS V14.01,2013-09-17 05:02:00,
2013-09-16 23:07:00,59.3,43.6,29.66,NW,321,0.0,0.0,56,0.00,,CLR,0.00,VWS V14.01,2013-09-17 05:07:00,
2013-09-16 23:12:00,59.0,42.4,29.66,NW,321,0.0,0.0,54,0.00,,CLR,0.00,VWS V14.01,2013-09-17 05:12:00,
2013-09-16 23:17:00,58.9,41.8,29.63,NW,321,0.0,0.0,53,0.00,,CLR,0.00,VWS V14.01,2013-09-17 05:17:00,
2013-09-16 23:22:00,58.7,41.6,29.63,NW,321,0.0,0.0,53,0.00,,CLR,0.00,VWS V14.01,2013-09-17 05:22:00,
2013-09-16 23:27:00,58.7,40.6,29.63,NNE,27,0.0,0.0,51,0.00,,CLR,0.00,VWS V14.01,2013-09-17 05:27:00,
2013-09-16 23:32:00,59.0,40.9,29.64,NE,42,0.0,0.0,51,0.00,,CLR,0.00,VWS V14.01,2013-09-17 05:32:00,
2013-09-16 23:37:00,59.2,41.1,29.64,NE,42,0.0,0.0,51,0.00,,CLR,0.00,VWS V14.01,2013-09-17 05:37:00,
2013-09-16 23:42:00,59.0,40.9,29.64,NE,42,0.0,0.0,51,0.00,,CLR,0.00,VWS V14.01,2013-09-17 05:42:00,
2013-09-16 23:47:00,59.0,40.9,29.64,NE,42,0.0,0.0,51,0.00,,CLR,0.00,VWS V14.01,2013-09-17 05:47:00,
2013-09-16 23:52:00,59.0,41.4,29.64,NE,42,0.0,0.0,52,0.00,,CLR,0.00,VWS V14.01,2013-09-17 05:52:00,
2013-09-16 23:57:00,58.9,41.3,29.64,NE,42,0.0,0.0,52,0.00,,CLR,0.00,VWS V14.01,2013-09-17 05:57:00,